EW7837 Weather Reports


time (UTC)temp
F
wind
direction
speed
knots
gust
knots
rain 1hr
in
rain 24hr
in
rain mn
in
humidity
%
barometer
mb
20260508011551 70 269 0.0 0.0 0.00 0.00 0.00 73 1011.3
20260508010015 70 269 0.0 0.0 0.00 0.00 0.00 72 1011.3
20260508004516 70 269 0.0 0.0 0.00 0.00 0.00 72 1011.5
20260508003113 70 269 0.0 0.0 0.00 0.00 0.00 72 1011.5
20260508001521 70 269 0.0 0.0 0.00 0.00 0.00 72 1011.1
20260508000019 71 259 0.0 0.0 0.00 0.00 0.00 72 1011.5
20260507234519 71 262 0.0 0.0 0.00 0.00 0.00 71 1011.5
20260507233030 70 246 0.0 0.0 0.00 0.00 0.00 72 1011.4
20260507231517 71 240 0.0 0.0 0.00 0.00 0.00 71 1011.5
20260507230015 71 268 0.0 0.0 0.00 0.00 0.00 71 1011.6
20260507224515 71 279 0.9 0.0 0.00 0.00 0.00 71 1011.6
20260507223014 71 271 0.0 0.0 0.00 0.00 0.00 71 1011.7
20260507221544 72 242 0.0 0.0 0.00 0.00 0.00 70 1011.8
20260507220043 72 259 0.9 0.0 0.00 0.00 0.00 70 1011.9
20260507214537 71 217 0.0 0.0 0.00 0.00 0.00 70 1012.2
20260507213040 72 250 0.9 0.0 0.00 0.00 0.00 71 1012.2
20260507211537 71 252 0.0 0.0 0.00 0.00 0.00 70 1012.3
20260507210045 71 273 0.0 0.0 0.00 0.00 0.00 70 1012.5
20260507204535 71 252 0.0 0.0 0.00 0.00 0.00 70 1012.6
20260507203041 71 265 0.0 0.0 0.00 0.00 0.00 71 1012.5
20260507201534 72 270 0.9 0.0 0.00 0.00 0.00 70 1012.5
20260507200034 72 254 0.9 0.0 0.00 0.00 0.00 70 1012.6
20260507194501 72 266 0.0 0.0 0.00 0.00 0.00 70 1012.6
20260507193001 72 262 0.0 0.0 0.00 0.00 0.00 70 1012.7
20260507191556 71 254 0.0 0.0 0.00 0.00 0.00 72 1012.7
20260507190056 71 209 0.9 0.0 0.00 0.00 0.00 70 1012.8
20260507184552 72 256 0.0 0.0 0.00 0.00 0.00 70 1013.0
20260507183051 72 264 0.0 0.0 0.00 0.00 0.00 71 1013.0
20260507181554 71 254 0.0 0.0 0.00 0.00 0.00 70 1013.1
20260507180047 73 250 0.0 0.0 0.00 0.00 0.00 67 1013.2
20260507174553 72 250 0.0 0.0 0.00 0.00 0.00 70 1013.2
20260507173103 72 250 0.0 0.0 0.00 0.00 0.00 68 1013.2
20260507171546 72 250 0.0 0.0 0.00 0.00 0.00 70 1013.3
20260507170039 72 250 0.0 0.0 0.00 0.00 0.00 70 1013.4
20260507164536 71 250 0.0 0.0 0.00 0.00 0.00 72 1013.6
20260507163027 70 250 0.0 0.0 0.00 0.00 0.00 72 1013.7
20260507161528 68 250 0.0 0.0 0.00 0.00 0.00 76 1013.7
20260507160018 66 250 0.0 0.0 0.00 0.00 0.00 79 1013.7
20260507154519 65 250 0.0 0.0 0.00 0.00 0.00 84 1013.7
20260507153015 63 250 0.0 0.0 0.00 0.00 0.00 86 1013.7
20260507151510 61 250 0.0 0.0 0.00 0.00 0.00 88 1013.7
20260507150007 61 250 0.0 0.0 0.00 0.00 0.00 87 1013.6
20260507144504 60 250 0.0 0.0 0.00 0.00 0.00 89 1013.7
20260507143002 59 250 0.0 0.0 0.00 0.00 0.00 90 1013.5
20260507141635 58 250 0.0 0.0 0.00 0.00 0.00 91 1013.3
20260507140027 57 250 0.0 0.0 0.00 0.00 0.00 92 1013.3
20260507134525 55 250 0.0 0.0 0.00 0.00 0.00 92 1013.2
20260507133056 54 250 0.0 0.0 0.00 0.00 0.00 91 1013.2
20260507131551 54 250 0.0 0.0 0.00 0.00 0.00 91 1013.2
20260507130047 54 250 0.0 0.0 0.00 0.00 0.00 91 1012.9
20260507124546 54 250 0.0 0.0 0.00 0.00 0.00 91 1012.8
20260507123045 54 250 0.0 0.0 0.00 0.00 0.00 90 1012.8
20260507121545 54 250 0.0 0.0 0.00 0.00 0.00 91 1012.7
20260507120039 54 250 0.0 0.0 0.00 0.00 0.00 91 1012.7
20260507114524 55 250 0.0 0.0 0.00 0.00 0.00 90 1012.8
20260507113037 55 250 0.0 0.0 0.00 0.00 0.00 90 1012.9
20260507111524 55 250 0.0 0.0 0.00 0.00 0.00 90 1012.8
20260507110010 55 250 0.0 0.0 0.00 0.00 0.00 90 1013.0
20260507104506 55 250 0.0 0.0 0.00 0.00 0.00 90 1013.1
20260507103002 55 250 0.0 0.0 0.00 0.00 0.00 90 1013.2
20260507101501 56 250 0.0 0.0 0.00 0.00 0.00 89 1013.2
20260507100001 56 250 0.0 0.0 0.00 0.00 0.00 90 1013.2
20260507094601 56 250 0.0 0.0 0.00 0.00 0.00 89 1013.2
20260507093057 56 250 0.0 0.0 0.00 0.00 0.00 89 1013.5
20260507091556 56 250 0.0 0.0 0.00 0.00 0.00 89 1013.6
20260507090056 57 250 0.0 0.0 0.00 0.00 0.00 89 1013.7
20260507084601 57 250 0.0 0.0 0.00 0.00 0.00 88 1013.9
20260507083050 57 250 0.0 0.0 0.00 0.00 0.00 88 1014.2
20260507081550 57 250 0.0 0.0 0.00 0.00 0.00 88 1014.2
20260507080047 58 250 0.0 0.0 0.00 0.00 0.00 88 1014.2
20260507074549 58 250 0.0 0.0 0.00 0.00 0.00 88 1014.2
20260507073054 58 250 0.0 0.0 0.00 0.00 0.00 88 1014.1
20260507071541 58 250 0.0 0.0 0.00 0.00 0.00 87 1014.2
20260507070043 59 250 0.0 0.0 0.00 0.00 0.00 86 1014.3
20260507064546 59 250 0.0 0.0 0.00 0.00 0.00 86 1014.3
20260507063027 59 250 0.0 0.0 0.00 0.00 0.00 86 1014.3
20260507061509 59 250 0.0 0.0 0.00 0.00 0.00 85 1014.3
20260507060036 59 250 0.0 0.0 0.00 0.00 0.00 85 1014.3
20260507054536 60 250 0.0 0.0 0.00 0.00 0.00 84 1014.4
20260507053035 60 250 0.0 0.0 0.00 0.00 0.00 83 1014.4
20260507051528 61 250 0.0 0.0 0.00 0.00 0.00 83 1014.3
20260507050024 62 250 0.0 0.0 0.00 0.00 0.00 82 1014.3
20260507044522 63 250 0.0 0.0 0.00 0.00 0.00 80 1014.3
20260507043016 64 250 0.0 0.0 0.00 0.00 0.00 79 1014.2
20260507041515 65 250 0.0 0.0 0.00 0.00 0.00 79 1014.2
20260507040013 65 250 0.0 0.0 0.00 0.00 0.00 77 1014.0
20260507034512 65 250 0.0 0.0 0.00 0.00 0.00 77 1013.7
20260507033008 66 250 0.0 0.0 0.00 0.00 0.00 78 1013.7
20260507031506 66 250 0.0 0.0 0.00 0.00 0.00 78 1013.5
20260507030004 66 250 0.0 0.0 0.00 0.00 0.00 78 1013.3
20260507024502 67 250 0.0 0.0 0.00 0.00 0.00 76 1013.2
20260507023034 67 250 0.0 0.0 0.00 0.00 0.00 75 1013.2
20260507021534 68 250 0.0 0.0 0.00 0.00 0.00 73 1013.2
20260507020034 69 250 0.0 0.0 0.00 0.00 0.00 71 1013.0
20260507014533 71 250 0.0 0.0 0.00 0.00 0.00 69 1013.0
20260507013025 71 252 0.0 0.0 0.00 0.00 0.00 68 1013.1